Change the Weather History Date:

Thursday, May 9, 2013

  Actual Average Record
Temperature  
Mean Temperature 70 °F -  
Max Temperature 84 °F 72 °F 93 °F (1987)
Min Temperature 55 °F 47 °F 35 °F (1990)
Cooling Degree Days 4    
Growing Degree Days 20 (Base 50)    
Moisture  
Dew Point 50 °F    
Average Humidity 50    
Maximum Humidity 75    
Minimum Humidity 27    
Precipitation  
Precipitation 0.00 in - - ()
Sea Level Pressure  
Sea Level Pressure 30.04 in    
Wind  
Wind Speed 14 mph (NW)    
Max Wind Speed 20 mph    
Max Gust Speed 29 mph    
Visibility 10 miles    
Events      
Averages and records for this station are not official NWS values.
T = Trace of Precipitation, MM = Missing Value Source: NWS Daily Summary

Daily Weather History Graph

Daily Weather History Graph

Search for Another Location

Airport or City:

Trip Planner

Search our weather history database for the weather conditions in past years. The results will help you decide how hot, cold, wet, or windy it might be!

Date:

Astronomy

May. 09, 2013 Rise Set
Actual Time 5:40 AM PDT 8:22 PM PDT
Civil Twilight 5:06 AM PDT 8:56 PM PDT
Nautical Twilight 4:23 AM PDT 9:39 PM PDT
Astronomical Twilight 3:34 AM PDT 10:29 PM PDT
Moon 5:29 AM PDT (5/9) 8:22 PM PDT (5/9)
Length of Visible Light 15h 49m
Length of Day
14h 41m
Waning Crescent, 0% of the Moon is Illuminated
May 9
Waning Crescent
May 9
New
May 17
First Quarter
May 24
Full
May 31
Last Quarter

Hourly Weather History & Observations

Time (PDT) Temp. Dew Point Humidity Pressure Visibility Wind Dir Wind Speed Gust Speed Precip Events Conditions
12:53 AM 63.0 °F 50.0 °F 63% 30.04 in 10.0 mi NW 19.6 mph 28.8 mph N/A   Clear
1:53 AM 63.0 °F 50.0 °F 63% 30.04 in 10.0 mi NW 18.4 mph 27.6 mph N/A   Clear
2:53 AM 62.1 °F 50.0 °F 65% 30.05 in 10.0 mi NW 19.6 mph 24.2 mph N/A   Clear
3:53 AM 61.0 °F 50.0 °F 67% 30.06 in 10.0 mi NW 16.1 mph - N/A   Clear
4:53 AM 59.0 °F 48.9 °F 69% 30.07 in 10.0 mi WNW 8.1 mph - N/A   Clear
5:53 AM 55.9 °F 48.0 °F 75% 30.08 in 10.0 mi WSW 4.6 mph - N/A   Clear
6:53 AM 60.1 °F 50.0 °F 69% 30.09 in 10.0 mi WNW 10.4 mph - N/A   Clear
7:53 AM 63.0 °F 51.1 °F 65% 30.10 in 10.0 mi NW 10.4 mph - N/A   Clear
8:53 AM 66.0 °F 51.1 °F 59% 30.10 in 10.0 mi NW 5.8 mph - N/A   Clear
10:53 AM 73.9 °F 51.1 °F 45% 30.08 in 10.0 mi NW 9.2 mph - N/A   Clear
11:53 AM 77.0 °F 50.0 °F 39% 30.06 in 10.0 mi NW 10.4 mph - N/A   Clear
12:53 PM 81.0 °F 50.0 °F 34% 30.04 in 10.0 mi NNW 12.7 mph - N/A   Clear
1:53 PM 82.9 °F 51.1 °F 33% 30.02 in 10.0 mi NNW 13.8 mph 21.9 mph N/A   Clear
2:53 PM 84.0 °F 50.0 °F 31% 30.00 in 10.0 mi NW 16.1 mph 21.9 mph N/A   Clear
3:53 PM 84.9 °F 51.1 °F 31% 29.98 in 10.0 mi NW 18.4 mph - N/A   Clear
5:53 PM 84.0 °F 46.9 °F 27% 29.96 in 10.0 mi NW 11.5 mph - N/A   Clear
6:53 PM 81.0 °F 48.0 °F 31% 29.96 in 10.0 mi NNW 15.0 mph 20.7 mph N/A   Clear
7:53 PM 77.0 °F 50.0 °F 39% 29.97 in 10.0 mi NNW 16.1 mph 28.8 mph N/A   Clear
8:53 PM 75.9 °F 51.1 °F 42% 29.99 in 10.0 mi NW 11.5 mph 16.1 mph N/A   Clear
9:53 PM 73.0 °F 53.1 °F 49% 30.01 in 10.0 mi NW 13.8 mph 21.9 mph N/A   Clear
10:53 PM 70.0 °F 52.0 °F 53% 30.04 in 10.0 mi NW 9.2 mph - N/A   Clear
11:53 PM 70.0 °F 52.0 °F 53% 30.05 in 10.0 mi NW 12.7 mph - N/A   Clear